Showing default

TIANHUI 2-01B, 44209

Orbit data source: Space-Track

TIANHUI 2-01B, 44209 is a payload satellite owned by G. Cehui dili (CN) in SSO that was launched on Mon, 29 Apr 2019 UTC via a CHANG ZHENG 4B launch vehicle from the Taiyaun Space Center, China (TSC). Payload-class satellites include a variety of spacecraft equipped with specific instruments for various scientific and technological missions. These include communications satellites like Starlink; space stations such as the ISS; scientific satellites like the Hubble; Earth observation satellites from companies like Planet Labs, Umbra, and HawkEye 360; GPS; miniature CubeSats for education and research; and military/defense satellites.

Loading next visibility...
Identifier
44209, 2019-024C
Orbit
SSO
Country
Flag of CNCN / PRC
Related business
Manufacturer
SAST
Mission
Operational Civil Radar Imaging
Bus & Motor
CAST-2000?, Unknown motor
Mass
~1,000 kg wet, ~1,000 kg dry
Launch date (UTC)
2019-04-29 (7 years ago)
Launch vehicle
CHANG ZHENG 4B
Launch site
Taiyaun Space Center, China (TSC)
Object type
Payload
Rocket body
Debris
Shape & HBR
Box + 2 Pan, Unknown HBR
Radar Cross Section
2.045 m², Large (>1 m²)

Expand to show TLE details & history
Last TLE update: 1 day ago

TLE from 1 day ago
0 TIANHUI 2-01B
1 44209U 19024C   25308.32565258  .00002270  00000-0  11895-3 0  9997
2 44209  97.4787 310.2937 0002020  94.7250 265.4214 15.16801315360621
Epoch: 2025-11-04T07:48Z
TLE epoch observation values (Epoch: 2025-11-04T07:48:56.382Z)
Latitude
-0.00004°
Longitude
149.24449°
Altitude
518.711 km
Speed
7.604 km/s
True Right ascension
20h 41m 10s
True Declination
0° 00' 00"
Sunlit
Object was in daylight at epoch
Visualization orbit readout
Latitude
Unknown
Longitude
Unknown
Altitude
Unknown
Speed
Unknown
Apparent Right ascension
Unknown
Apparent Declination
Unknown
Sunlit
N/A
Visualization observer readout
Local Sidereal Time
15:07:37
Azimuth
Unknown
Elevation
Unknown
Doppler factor
Unknown
Orbital elements
Apogee altitude
513.88 km
Perigee altitude
511.097 km
Semi-major axis
6,890.626 km
Eccentricity
0.0002
Inclination
97.4787°
RAAN
310.2937°
Arg. of periapsis
94.725°
True anomaly
265.39833°
Mean anomaly
265.4214°
Eccentric anomaly
265.40986°
Mean motion
3.79451 °/min
Orbital period
94.87 mins
BSTAR
0.00011895
Loading maneuver chart data...
Computing Atmospheric mass density...
Loading historical data...
Loading historical data...
Loading historical data...
Loading historical data...
Loading historical data...
Loading historical data...
Loading historical data...

Documentation

Showing up to 5 results
|